Leadville, CO

1:53 PM MST on December 15, 2019 (GMT -0700)
Lake County

Weather History for KLXV - November, 2019

Change the Weather History Date:

Friday, November 15, 2019

  Actual Average Record
Temperature  
Mean Temperature 38 °F -  
Max Temperature 51 °F 37 °F 57 °F (1999)
Min Temperature 25 °F 12 °F -9 °F (1997)
Degree Days  
Heating Degree Days 27 40  
Month to date heating degree days 521 561  
Since 1 July heating degree days 2589 2750  
Cooling Degree Days 0 0  
Month to date cooling degree days 0 0  
Year to date cooling degree days 0 0  
Moisture  
Dew Point 13 °F    
Average Humidity 39    
Maximum Humidity 58    
Minimum Humidity 20    
Precipitation  
Precipitation 0.00 in 0.02 in 0.32 in (1987)
Month to date precipitation 0.01 0.41  
Year to date precipitation 14.07 11.35  
Sea Level Pressure  
Sea Level Pressure 30.10 in    
Wind  
Wind Speed 7 mph (NNE)    
Max Wind Speed 17 mph    
Max Gust Speed 26 mph    
Visibility 10 miles    
Events      
T = Trace of Precipitation, MM = Missing Value Source: NWS Daily Summary

Daily Weather History Graph

Daily Weather History Graph

Search for Another Location

Airport or City:

Astronomy

Nov. 15, 2019 Rise Set
Actual Time 6:48 AM MST 4:50 PM MST
Civil Twilight 6:19 AM MST 5:19 PM MST
Nautical Twilight 5:47 AM MST 5:51 PM MST
Astronomical Twilight 5:15 AM MST 6:23 PM MST
Moon 7:29 PM MST 9:47 AM MST
Length of Visible Light 10h 59m
Length of Day
10h 02m
Waning Gibbous, 89% of the Moon is Illuminated
Nov 15
Waning Gibbous
Nov 19
Last Quarter
Nov 26
New
Dec 3
First Quarter
Dec 11
Full

Hourly Weather History & Observations

Time (MST) Temp. Windchill Dew Point Humidity Pressure Visibility Wind Dir Wind Speed Gust Speed Precip Events Conditions
12:53 AM 28.9 °F 21.9 °F 12.9 °F 51% 30.11 in 10.0 mi NNE 6.9 mph - N/A   Clear
1:53 AM 30.9 °F 22.8 °F 15.1 °F 52% 30.10 in 10.0 mi NNE 9.2 mph - N/A   Clear
2:53 AM 28.0 °F - 15.1 °F 58% 30.14 in 10.0 mi Calm Calm - N/A   Clear
3:53 AM 30.0 °F 22.4 °F 15.1 °F 54% 30.13 in 10.0 mi ENE 8.1 mph - N/A   Clear
4:53 AM 32.0 °F 26.4 °F 15.1 °F 50% 30.14 in 10.0 mi ESE 5.8 mph - N/A   Clear
5:53 AM 28.9 °F 20.4 °F 14.0 °F 54% 30.20 in 10.0 mi NE 9.2 mph - N/A   Clear
6:53 AM 26.1 °F 21.9 °F 12.9 °F 58% 30.25 in 10.0 mi ENE 3.5 mph - N/A   Clear
7:53 AM 28.0 °F 19.3 °F 12.9 °F 53% 30.24 in 10.0 mi ENE 9.2 mph - N/A   Clear
8:53 AM 32.0 °F - 15.1 °F 50% 30.21 in 10.0 mi Calm Calm - N/A   Clear
9:53 AM 44.1 °F 40.8 °F 12.0 °F 27% 30.12 in 10.0 mi North 5.8 mph - N/A   Clear
10:53 AM 48.0 °F - 9.0 °F 21% 30.11 in 10.0 mi NNW 6.9 mph - N/A   Clear
11:53 AM 50.0 °F - 10.9 °F 21% 30.05 in 10.0 mi NNW 11.5 mph - N/A   Clear
12:53 PM 48.9 °F - 10.9 °F 22% 30.02 in 10.0 mi NW 15.0 mph 21.9 mph N/A   Clear
1:53 PM 50.0 °F - 10.0 °F 20% 29.98 in 10.0 mi NNW 5.8 mph 17.3 mph N/A   Clear
2:53 PM 50.0 °F - 12.0 °F 22% 30.01 in 10.0 mi North 9.2 mph - N/A   Clear
3:53 PM 46.9 °F - 10.9 °F 23% 30.01 in 10.0 mi North 8.1 mph - N/A   Mostly Cloudy
4:53 PM 42.1 °F 39.2 °F 12.0 °F 29% 30.06 in 10.0 mi North 4.6 mph - N/A   Overcast
5:53 PM 37.9 °F 33.5 °F 14.0 °F 38% 30.10 in 10.0 mi ENE 5.8 mph - N/A   Partly Cloudy
6:53 PM 36.0 °F 30.3 °F 14.0 °F 41% 30.12 in 10.0 mi ENE 6.9 mph - N/A   Partly Cloudy
8:53 PM 30.0 °F 23.2 °F 15.1 °F 54% 30.13 in 10.0 mi ENE 6.9 mph - N/A   Clear
9:53 PM 30.0 °F 22.4 °F 14.0 °F 51% 30.04 in 10.0 mi NE 8.1 mph - N/A   Clear
10:53 PM 28.9 °F 25.2 °F 14.0 °F 54% 29.99 in 10.0 mi NNE 3.5 mph - N/A   Clear
11:53 PM 26.1 °F 21.9 °F 14.0 °F 60% 30.00 in 10.0 mi SW 3.5 mph - N/A   Clear